Location: Marsån
(66.4167°N, 22.2833°E)
Time: 10:00:24
(UTC+00:00)

Meteor 1-24 Rocket - Pass Details

Date: 24 February 2024
Orbit: 790 x 926 km, 81.2° (Epoch: 15 April)

Event Time Altitude Azimuth Distance (km) Brightness Sun altitude
Rises 21:56:51 0° 335° (NNW) 3,316 7.9 -32.4°
Reaches altitude 10° 21:59:18 10° 339° (NNW) 2,376 6.9 -32.5°
Enters shadow 22:03:17 45° 10° (N) 1,073 4.5 -32.5°
